When you browse on this site, cookies collect data to enhance your experience and personalize the content and advertising you see.
Visit our Privacy Policy to learn more. By continuing to use the site, you agree to this use of cookies and data.
  • In Spain
  • List of Countries
  • For 7 days
  • Water Temperature
  • Satellite Maps
  • Weather Map
  • Weather Widgets
  • user-avatar
    Login

    Hourly Weather Tarija

    Today, 18 January, Friday

    Time Temperature Precipitation Wind Pressure Humidity
    00:00 +18°C° 1.4 mm 3 mps 599 mmHg 91%
    01:00 +17°C° 1.4 mm 3 mps 599 mmHg 93%
    02:00 +17°C° 1.4 mm 3 mps 599 mmHg 95%
    03:00 +17°C° 0.6 mm 4 mps 599 mmHg 96%
    04:00 +15°C° 0.6 mm 4 mps 599 mmHg 96%
    05:00 +15°C° 0.6 mm 4 mps 599 mmHg 97%
    06:00 +14°C° 0.3 mm 4 mps 599 mmHg 96%
    07:00 +14°C° 0.3 mm 3 mps 600 mmHg 95%
    08:00 +14°C° 0.3 mm 3 mps 600 mmHg 94%
    09:00 +14°C° 0.1 mm 3 mps 600 mmHg 90%
    10:00 +16°C° 0.1 mm 2 mps 601 mmHg 87%
    11:00 +17°C° 0.1 mm 2 mps 601 mmHg 83%
    12:00 +17°C° 0.1 mm 2 mps 601 mmHg 83%
    13:00 +17°C° 0.1 mm 3 mps 601 mmHg 83%
    14:00 +17°C° 0.1 mm 3 mps 600 mmHg 83%
    15:00 +17°C° 0.1 mm 3 mps 600 mmHg 84%
    16:00 +17°C° 0.1 mm 3 mps 599 mmHg 86%
    17:00 +17°C° 0.1 mm 2 mps 598 mmHg 88%
    18:00 +16°C° 0.1 mm 2 mps 598 mmHg 90%
    19:00 +16°C° 0.1 mm 2 mps 599 mmHg 92%
    20:00 +15°C° 0.1 mm 2 mps 599 mmHg 93%
    21:00 +15°C° 0.1 mm 2 mps 599 mmHg 93%
    22:00 +15°C° 0.1 mm 1 mps 599 mmHg 93%
    23:00 +15°C° 0.1 mm 1 mps 600 mmHg 93%

    Tomorrow, 19 January, Saturday

    Time Temperature Precipitation Wind Pressure Humidity
    00:00 +15°C° 0.1 mm 1 mps 600 mmHg 92%
    01:00 +15°C° 0.1 mm 1 mps 599 mmHg 91%
    02:00 +15°C° 0.1 mm 1 mps 599 mmHg 91%
    03:00 +15°C° 0.1 mm 1 mps 599 mmHg 90%
    04:00 +14°C° 0.1 mm 1 mps 599 mmHg 90%
    05:00 +14°C° 0.1 mm 1 mps 599 mmHg 90%
    06:00 +15°C° 0.2 mm 1 mps 599 mmHg 86%
    07:00 +16°C° 0.2 mm 1 mps 600 mmHg 83%
    08:00 +16°C° 0.2 mm 1 mps 601 mmHg 79%
    09:00 +19°C° 0.1 mm 1 mps 601 mmHg 74%
    10:00 +19°C° 0.1 mm 2 mps 601 mmHg 69%
    11:00 +21°C° 0.1 mm 3 mps 602 mmHg 63%
    12:00 +20°C° 0.1 mm 3 mps 601 mmHg 65%
    13:00 +20°C° 0.1 mm 3 mps 600 mmHg 67%
    14:00 +20°C° 0.1 mm 3 mps 599 mmHg 68%
    15:00 +19°C° 0.1 mm 3 mps 599 mmHg 70%
    16:00 +19°C° 0.1 mm 3 mps 599 mmHg 71%
    17:00 +19°C° 0.1 mm 3 mps 598 mmHg 73%
    18:00 +18°C° 0 mm 2 mps 598 mmHg 77%
    19:00 +17°C° 0 mm 2 mps 598 mmHg 81%
    20:00 +18°C° 0 mm 1 mps 599 mmHg 86%
    21:00 +16°C° 0.1 mm 1 mps 599 mmHg 87%
    22:00 +16°C° 0.1 mm 1 mps 599 mmHg 89%
    23:00 +16°C° 0.1 mm 1 mps 600 mmHg 91%

    Day after tomorrow, 20 January, Sunday

    Time Temperature Precipitation Wind Pressure Humidity
    00:00 +16°C° 0 mm 1 mps 599 mmHg 90%
    01:00 +16°C° 0 mm 1 mps 599 mmHg 90%
    02:00 +16°C° 0 mm 1 mps 598 mmHg 89%
    03:00 +15°C° 0 mm 1 mps 598 mmHg 90%
    04:00 +15°C° 0 mm 1 mps 597 mmHg 90%
    05:00 +14°C° 0 mm 1 mps 597 mmHg 91%
    06:00 +16°C° 0 mm 1 mps 598 mmHg 83%
    07:00 +19°C° 0 mm 1 mps 599 mmHg 76%
    08:00 +20°C° 0 mm 1 mps 600 mmHg 68%
    09:00 +22°C° 0 mm 1 mps 600 mmHg 62%
    10:00 +24°C° 0 mm 2 mps 601 mmHg 57%
    11:00 +25°C° 0 mm 3 mps 601 mmHg 51%
    12:00 +26°C° 0 mm 3 mps 600 mmHg 50%
    13:00 +27°C° 0 mm 3 mps 600 mmHg 49%
    14:00 +27°C° 0 mm 4 mps 599 mmHg 49%
    15:00 +27°C° 0 mm 4 mps 599 mmHg 51%
    16:00 +26°C° 0 mm 4 mps 598 mmHg 53%
    17:00 +26°C° 0 mm 3 mps 597 mmHg 55%
    18:00 +24°C° 0 mm 3 mps 597 mmHg 61%
    19:00 +21°C° 0 mm 2 mps 597 mmHg 68%
    20:00 +19°C° 0 mm 2 mps 597 mmHg 74%
    21:00 +20°C° 0 mm 1 mps 597 mmHg 76%
    22:00 +19°C° 0 mm 1 mps 597 mmHg 78%
    23:00 +19°C° 0 mm 1 mps 598 mmHg 80%

    21 January, Monday

    Time Temperature Precipitation Wind Pressure Humidity
    00:00 +18°C° 0 mm 1 mps 597 mmHg 81%
    01:00 +18°C° 0 mm 1 mps 596 mmHg 82%
    02:00 +18°C° 0 mm 1 mps 596 mmHg 82%
    03:00 +16°C° 0 mm 1 mps 596 mmHg 83%
    04:00 +16°C° 0 mm 1 mps 596 mmHg 83%
    05:00 +16°C° 0 mm 1 mps 596 mmHg 84%
    06:00 +19°C° 0 mm 1 mps 597 mmHg 75%
    07:00 +19°C° 0 mm 0 mps 598 mmHg 67%
    08:00 +21°C° 0 mm 0 mps 600 mmHg 58%
    09:00 +24°C° 0 mm 1 mps 600 mmHg 53%
    10:00 +26°C° 0 mm 2 mps 600 mmHg 49%
    11:00 +27°C° 0 mm 3 mps 601 mmHg 44%
    12:00 +28°C° 0 mm 4 mps 600 mmHg 42%
    13:00 +29°C° 0 mm 4 mps 600 mmHg 41%
    14:00 +29°C° 0 mm 5 mps 600 mmHg 40%
    15:00 +29°C° 0 mm 5 mps 599 mmHg 42%
    16:00 +28°C° 0 mm 5 mps 599 mmHg 43%
    17:00 +27°C° 0 mm 5 mps 598 mmHg 45%
    18:00 +25°C° 0.1 mm 4 mps 598 mmHg 53%
    19:00 +22°C° 0.1 mm 4 mps 598 mmHg 62%
    20:00 +20°C° 0.1 mm 3 mps 598 mmHg 70%
    21:00 +20°C° 0.1 mm 2 mps 598 mmHg 72%
    22:00 +19°C° 0.1 mm 2 mps 599 mmHg 75%
    23:00 +19°C° 0.1 mm 2 mps 599 mmHg 78%

    22 January, Tuesday

    Time Temperature Precipitation Wind Pressure Humidity
    00:00 +20°C° 0 mm 1 mps 599 mmHg 79%
    01:00 +19°C° 0 mm 1 mps 598 mmHg 81%
    02:00 +17°C° 0 mm 0 mps 598 mmHg 82%
    03:00 +19°C° 0 mm 1 mps 598 mmHg 82%
    04:00 +19°C° 0 mm 1 mps 597 mmHg 83%
    05:00 +19°C° 0 mm 1 mps 597 mmHg 83%
    06:00 +20°C° 0 mm 1 mps 598 mmHg 75%
    07:00 +21°C° 0 mm 2 mps 599 mmHg 67%
    08:00 +24°C° 0 mm 2 mps 600 mmHg 59%
    09:00 +26°C° 0 mm 2 mps 600 mmHg 51%
    10:00 +28°C° 0 mm 3 mps 600 mmHg 44%
    11:00 +29°C° 0 mm 3 mps 601 mmHg 36%
    12:00 +30°C° 0 mm 4 mps 600 mmHg 36%
    13:00 +32°C° 0 mm 4 mps 599 mmHg 35%
    14:00 +32°C° 0 mm 5 mps 599 mmHg 35%
    15:00 +32°C° 0.2 mm 5 mps 598 mmHg 36%
    16:00 +30°C° 0.2 mm 5 mps 598 mmHg 38%
    17:00 +29°C° 0.2 mm 5 mps 597 mmHg 39%
    18:00 +27°C° 0.1 mm 4 mps 597 mmHg 46%
    19:00 +25°C° 0.1 mm 3 mps 597 mmHg 52%
    20:00 +22°C° 0.1 mm 3 mps 597 mmHg 59%
    21:00 +23°C° 0.3 mm 2 mps 597 mmHg 63%
    22:00 +21°C° 0.3 mm 2 mps 597 mmHg 67%
    23:00 +21°C° 0.3 mm 1 mps 597 mmHg 71%

    23 January, Wednesday

    Time Temperature Precipitation Wind Pressure Humidity
    00:00 +21°C° 0 mm 1 mps 597 mmHg 71%
    01:00 +21°C° 0 mm 1 mps 597 mmHg 71%
    02:00 +21°C° 0 mm 1 mps 597 mmHg 71%
    03:00 +20°C° 0 mm 1 mps 597 mmHg 71%
    04:00 +20°C° 0 mm 1 mps 597 mmHg 71%
    05:00 +20°C° 0 mm 1 mps 597 mmHg 70%
    06:00 +22°C° 0 mm 1 mps 598 mmHg 64%
    07:00 +23°C° 0 mm 1 mps 598 mmHg 58%
    08:00 +24°C° 0 mm 1 mps 599 mmHg 52%
    09:00 +26°C° 0 mm 2 mps 600 mmHg 48%
    10:00 +27°C° 0 mm 2 mps 600 mmHg 44%
    11:00 +28°C° 0 mm 2 mps 600 mmHg 41%
    12:00 +29°C° 0.1 mm 3 mps 600 mmHg 40%
    13:00 +30°C° 0.1 mm 4 mps 599 mmHg 39%
    14:00 +32°C° 0.1 mm 5 mps 599 mmHg 37%
    15:00 +30°C° 0.4 mm 5 mps 598 mmHg 41%
    16:00 +29°C° 0.4 mm 5 mps 598 mmHg 45%
    17:00 +28°C° 0.4 mm 5 mps 597 mmHg 49%
    18:00 +26°C° 0.9 mm 5 mps 597 mmHg 60%
    19:00 +23°C° 0.9 mm 4 mps 597 mmHg 70%
    20:00 +21°C° 0.9 mm 3 mps 597 mmHg 80%
    21:00 +20°C° 0.6 mm 3 mps 597 mmHg 81%
    22:00 +20°C° 0.6 mm 3 mps 598 mmHg 82%
    23:00 +19°C° 0.6 mm 2 mps 598 mmHg 83%
    Show more